User: anonymous   Login
Location: G?julap?du
(16.5372°N, 81.0979°E)
Time: 16:18:57
(UTC+00:00)
Language:

OAO 2 Rocket - Orbit

View from above orbital plane
View from above orbital plane
View from above satellite
View from above satellite

Ground track
Ground track

The orbit is defined by the following mean orbital elements,

1 03598U          26162.22530439 +.00000000 +00000-0 +74210-4 0 00001
2 03598  34.9910 143.5450 0047034 240.1708 119.4305 14.57660183    09
Epoch (UTC): 11 June 2026 05:24:26
Eccentricity: 0.0047034
inclination: 34.9910°
perigee height: 667 km
apogee height: 734 km
right ascension of ascending node: 143.5450°
argument of perigee: 240.1708°
revolutions per day: 14.57660183
mean anomaly at epoch: 119.4305°

The dashed part of the orbit path shows where the satellite is in the earth's shadow,  

DLR